Location: Prague
(50.0830°N, 14.4670°E)
Time: 07:07:25
(UTC+02:00)

DOVE 4 - Pass Details

Date: 10 April 2023
Orbit: 584 x 791 km, 97.8° (Epoch: 29 May)

Event Time Altitude Azimuth Distance (km) Brightness Sun altitude
Rises 00:58:00 0° 6° (N) 3,056 ? -32.1°
Reaches altitude 10° 01:00:32 10° 355° (N) 2,100 ? -32.2°
Enters shadow 01:03:21 26° 321° (NW) 1,296 ? -32.2°
